Location: Goudex
(43.3760°N, 0.9543°E)
Time: 00:07:21
(UTC+00:00)

Abrixas rocket - Pass Details

Date: 20 November 2019
Orbit: 357 x 366 km, 48.4° (Epoch: 12 December)

Event Time Altitude Azimuth Distance (km) Brightness Sun altitude
Exits shadow 05:54:51 19° 290° (WNW) 947 3.4 -11.0°
Maximum altitude 05:56:34 36° 348° (NNW) 594 2.8 -10.7°
Drops below altitude 10° 05:59:23 10° 58° (ENE) 1,344 5.4 -10.2°
Sets 06:01:31 0° 67° (ENE) 2,194 6.7 -9.9°
